DIFLY KBHB-CYYR

Flight info

Callsign DIFLY
Flight time 1h 23m
Altitude 25000
Route BGR DCT TUGUB Q864 BEMEK DCT RUBKO
Aircraft B60T/L-SDFGRY/C

Departure

Time 2026-05-07 18:18
Airport Hancock County-Bar Harbor Airport (KBHB)

Arrival

Time 2026-05-07 19:42
Airport Goose Bay Airport (CYYR)
Time Latitude Longitude Altitude Speed Heading
2026-05-07 18:07 44.44619 -68.36243 86 ft 0 kts 89°
2026-05-07 18:14 44.44619 -68.36241 84 ft 2 kts 85°
2026-05-07 18:15 44.44650 -68.36214 85 ft 6 kts 15°
2026-05-07 18:15 44.44680 -68.36219 84 ft 4 kts 311°
2026-05-07 18:15 44.44680 -68.36257 84 ft 7 kts 233°
2026-05-07 18:15 44.44624 -68.36296 86 ft 11 kts 203°
2026-05-07 18:16 44.44556 -68.36290 84 ft 8 kts 175°
2026-05-07 18:16 44.44516 -68.36311 84 ft 8 kts 229°
2026-05-07 18:16 44.44530 -68.36420 86 ft 17 kts 282°
2026-05-07 18:16 44.44545 -68.36509 85 ft 6 kts 283°
2026-05-07 18:17 44.44570 -68.36608 82 ft 13 kts 344°
2026-05-07 18:17 44.44594 -68.36599 84 ft 0 kts 24°
2026-05-07 18:17 44.44635 -68.36571 82 ft 31 kts 25°
2026-05-07 18:18 44.45046 -68.36309 83 ft 99 kts 23°
2026-05-07 18:18 44.45790 -68.35844 276 ft 133 kts 25°
2026-05-07 18:18 44.46685 -68.35391 801 ft 141 kts
2026-05-07 18:18 44.47610 -68.35600 1494 ft 131 kts 330°
2026-05-07 18:19 44.48443 -68.36207 2063 ft 136 kts 327°
2026-05-07 18:19 44.49366 -68.36893 2286 ft 162 kts 332°
2026-05-07 18:19 44.50320 -68.37669 2779 ft 159 kts 319°
2026-05-07 18:19 44.51202 -68.38718 2874 ft 178 kts 316°
2026-05-07 18:20 44.52146 -68.39815 3355 ft 166 kts 319°
2026-05-07 18:20 44.53101 -68.40705 3767 ft 173 kts 327°
2026-05-07 18:20 44.54188 -68.41591 3920 ft 187 kts 338°
2026-05-07 18:20 44.55441 -68.41473 4475 ft 183 kts 22°
2026-05-07 18:21 44.56487 -68.40591 5172 ft 168 kts 21°
2026-05-07 18:21 44.57525 -68.40068 5848 ft 155 kts 12°
2026-05-07 18:21 44.58534 -68.39642 6508 ft 148 kts 10°
2026-05-07 18:21 44.59499 -68.39226 7155 ft 140 kts
2026-05-07 18:22 44.60433 -68.38831 7662 ft 144 kts
2026-05-07 18:22 44.61078 -68.38555 7984 ft 145 kts
2026-05-07 18:22 44.62380 -68.37994 8693 ft 147 kts
2026-05-07 18:22 44.63345 -68.37575 9252 ft 146 kts
2026-05-07 18:23 44.64325 -68.37154 9741 ft 148 kts
2026-05-07 18:23 44.65325 -68.36725 10155 ft 153 kts
2026-05-07 18:23 44.66342 -68.36286 10578 ft 156 kts
2026-05-07 18:23 44.67397 -68.35831 10998 ft 161 kts
2026-05-07 18:24 44.68478 -68.35364 11427 ft 164 kts
2026-05-07 18:24 44.69586 -68.34886 11844 ft 168 kts
2026-05-07 18:24 44.70719 -68.34396 12262 ft 172 kts
2026-05-07 18:24 44.71877 -68.33895 12689 ft 176 kts 359°
2026-05-07 18:25 44.73062 -68.33382 13138 ft 180 kts 358°
2026-05-07 18:25 44.74275 -68.32858 13550 ft 184 kts 358°
2026-05-07 18:25 44.75511 -68.32321 13928 ft 187 kts 358°
2026-05-07 18:25 44.76761 -68.31779 14305 ft 189 kts 359°
2026-05-07 18:26 44.78037 -68.31226 14675 ft 192 kts 359°
2026-05-07 18:26 44.79319 -68.30668 15055 ft 194 kts 359°
2026-05-07 18:26 44.80617 -68.30108 15423 ft 196 kts 359°
2026-05-07 18:26 44.81933 -68.29537 15804 ft 200 kts
2026-05-07 18:27 44.83253 -68.28961 16195 ft 203 kts
2026-05-07 18:27 44.84612 -68.28373 16580 ft 205 kts
2026-05-07 18:27 44.85986 -68.27775 16973 ft 208 kts
2026-05-07 18:27 44.86924 -68.27363 17259 ft 210 kts
2026-05-07 18:28 44.88790 -68.26553 17771 ft 214 kts
2026-05-07 18:28 44.90218 -68.25929 18132 ft 216 kts
2026-05-07 18:28 44.91656 -68.25307 18489 ft 217 kts
2026-05-07 18:28 44.93102 -68.24668 18838 ft 218 kts
2026-05-07 18:29 44.94551 -68.24040 19211 ft 218 kts
2026-05-07 18:29 44.95514 -68.23622 19452 ft 218 kts
2026-05-07 18:29 44.97447 -68.22777 19928 ft 220 kts
2026-05-07 18:29 44.98912 -68.22137 20302 ft 220 kts
2026-05-07 18:30 45.00380 -68.21495 20661 ft 221 kts
2026-05-07 18:30 45.01856 -68.20850 20992 ft 222 kts
2026-05-07 18:30 45.02835 -68.20421 21226 ft 223 kts
2026-05-07 18:30 45.04318 -68.19772 21595 ft 223 kts
2026-05-07 18:31 45.05808 -68.19120 21970 ft 224 kts
2026-05-07 18:31 45.07792 -68.18252 22443 ft 226 kts
2026-05-07 18:31 45.08806 -68.17806 22687 ft 226 kts
2026-05-07 18:31 45.10313 -68.17145 23040 ft 227 kts
2026-05-07 18:32 45.11826 -68.16483 23369 ft 228 kts
2026-05-07 18:32 45.13346 -68.15815 23660 ft 229 kts
2026-05-07 18:32 45.14870 -68.15144 23956 ft 230 kts
2026-05-07 18:32 45.16384 -68.14478 24242 ft 231 kts 360°
2026-05-07 18:33 45.17920 -68.13802 24528 ft 232 kts 359°
2026-05-07 18:33 45.19472 -68.13124 24709 ft 239 kts 359°
2026-05-07 18:33 45.21124 -68.12419 24727 ft 257 kts
2026-05-07 18:33 45.22894 -68.11639 24736 ft 275 kts
2026-05-07 18:34 45.24768 -68.10798 24761 ft 290 kts
2026-05-07 18:34 45.26741 -68.09920 24732 ft 304 kts
2026-05-07 18:34 45.28794 -68.09010 24726 ft 314 kts
2026-05-07 18:34 45.30909 -68.08072 24722 ft 322 kts
2026-05-07 18:35 45.33066 -68.07092 24719 ft 328 kts
2026-05-07 18:35 45.35263 -68.06128 24723 ft 332 kts
2026-05-07 18:35 45.37487 -68.05163 24714 ft 336 kts
2026-05-07 18:35 45.39703 -68.04178 24714 ft 339 kts
2026-05-07 18:36 45.41964 -68.03163 24713 ft 340 kts
2026-05-07 18:36 45.44231 -68.02155 24723 ft 342 kts
2026-05-07 18:36 45.46514 -68.01144 24712 ft 343 kts
2026-05-07 18:36 45.48798 -68.00130 24711 ft 344 kts
2026-05-07 18:37 45.51086 -67.99108 24715 ft 345 kts
2026-05-07 18:37 45.53384 -67.98085 24713 ft 346 kts
2026-05-07 18:37 45.55693 -67.97057 24695 ft 347 kts
2026-05-07 18:37 45.57969 -67.96043 24699 ft 347 kts
2026-05-07 18:38 45.60270 -67.95010 24704 ft 346 kts
2026-05-07 18:38 45.62568 -67.93981 24707 ft 346 kts
2026-05-07 18:38 45.64875 -67.92951 24702 ft 347 kts
2026-05-07 18:38 45.67185 -67.91917 24702 ft 347 kts
2026-05-07 18:39 45.69490 -67.90882 24703 ft 347 kts
2026-05-07 18:39 45.71798 -67.89847 24700 ft 347 kts
2026-05-07 18:39 45.74109 -67.88810 24697 ft 348 kts
2026-05-07 18:39 45.76423 -67.87770 24710 ft 349 kts
2026-05-07 18:40 45.78752 -67.86725 24696 ft 350 kts
2026-05-07 18:40 45.81047 -67.85690 24695 ft 350 kts
2026-05-07 18:40 45.83373 -67.84640 24694 ft 350 kts
2026-05-07 18:40 45.85693 -67.83595 24691 ft 349 kts
2026-05-07 18:41 45.88007 -67.82549 24688 ft 348 kts
2026-05-07 18:41 45.90318 -67.81504 24687 ft 348 kts
2026-05-07 18:41 45.92607 -67.80310 24682 ft 356 kts 19°
2026-05-07 18:41 45.94716 -67.78366 24683 ft 365 kts 35°
2026-05-07 18:42 45.96489 -67.75742 24688 ft 368 kts 52°
2026-05-07 18:42 45.97797 -67.72598 24684 ft 366 kts 70°
2026-05-07 18:42 45.98557 -67.69154 24625 ft 357 kts 87°
2026-05-07 18:42 45.98878 -67.65654 24678 ft 352 kts 92°
2026-05-07 18:43 45.99171 -67.62152 24687 ft 353 kts 92°
2026-05-07 18:43 45.99565 -67.57474 24688 ft 354 kts 92°
2026-05-07 18:43 46.00720 -67.43454 24684 ft 352 kts 92°
2026-05-07 18:43 46.01853 -67.29507 24681 ft 352 kts 92°
2026-05-07 18:44 46.02974 -67.15508 24677 ft 352 kts 92°
2026-05-07 18:44 46.04080 -67.01462 24675 ft 352 kts 92°
2026-05-07 18:44 46.05159 -66.87542 24680 ft 353 kts 93°
2026-05-07 18:44 46.06236 -66.73433 24659 ft 351 kts 93°
2026-05-07 18:45 46.07785 -66.52718 24672 ft 349 kts 93°
2026-05-07 18:45 46.08394 -66.49280 24665 ft 362 kts 70°
2026-05-07 18:45 46.09666 -66.46121 24663 ft 365 kts 54°
2026-05-07 18:45 46.11367 -66.43459 24659 ft 364 kts 38°
2026-05-07 18:46 46.13438 -66.41404 24667 ft 357 kts 22°
2026-05-07 18:46 46.17742 -66.38229 24666 ft 358 kts 21°
2026-05-07 18:46 46.35283 -66.24784 24669 ft 360 kts 22°
2026-05-07 18:46 46.52849 -66.11204 24675 ft 359 kts 22°
2026-05-07 18:47 46.70660 -65.97383 24661 ft 360 kts 22°
2026-05-07 18:47 46.88519 -65.83413 24664 ft 362 kts 23°
2026-05-07 18:47 47.06144 -65.69507 24659 ft 364 kts 24°
2026-05-07 18:47 47.24081 -65.55242 24658 ft 366 kts 25°
2026-05-07 18:48 47.42048 -65.40844 24652 ft 366 kts 26°
2026-05-07 18:48 47.59670 -65.26618 24656 ft 366 kts 26°
2026-05-07 18:48 47.61903 -65.24819 24650 ft 366 kts 26°
2026-05-07 18:48 47.64154 -65.22993 24649 ft 366 kts 27°
2026-05-07 18:49 47.66396 -65.21169 24649 ft 366 kts 27°
2026-05-07 18:49 47.68606 -65.19374 24641 ft 366 kts 27°
2026-05-07 18:49 47.70855 -65.17550 24641 ft 367 kts 27°
2026-05-07 18:49 47.73097 -65.15715 24641 ft 367 kts 27°
2026-05-07 18:50 47.75312 -65.13906 24643 ft 367 kts 27°
2026-05-07 18:50 47.77564 -65.12070 24638 ft 367 kts 27°
2026-05-07 18:50 47.79779 -65.10262 24638 ft 367 kts 27°
2026-05-07 18:50 47.82022 -65.08426 24638 ft 367 kts 27°
2026-05-07 18:51 47.84263 -65.06591 24638 ft 367 kts 27°
2026-05-07 18:51 47.86506 -65.04753 24638 ft 367 kts 27°
2026-05-07 18:51 47.88753 -65.02918 24635 ft 368 kts 28°
2026-05-07 18:51 47.90971 -65.01095 24635 ft 368 kts 28°
2026-05-07 18:52 47.93223 -64.99235 24633 ft 368 kts 28°
2026-05-07 18:52 47.95477 -64.97381 24633 ft 368 kts 28°
2026-05-07 18:52 47.97707 -64.95546 24633 ft 368 kts 28°
2026-05-07 18:52 47.99956 -64.93693 24630 ft 368 kts 28°
2026-05-07 18:53 48.02177 -64.91859 24631 ft 368 kts 28°
2026-05-07 18:53 48.04425 -64.90001 24631 ft 368 kts 28°
2026-05-07 18:53 48.06673 -64.88142 24631 ft 368 kts 28°
2026-05-07 18:53 48.08906 -64.86300 24627 ft 369 kts 29°
2026-05-07 18:54 48.11165 -64.84424 24629 ft 369 kts 29°
2026-05-07 18:54 48.13381 -64.82582 24629 ft 368 kts 29°
2026-05-07 18:54 48.15631 -64.80716 24629 ft 368 kts 29°
2026-05-07 18:54 48.45853 -64.55445 24622 ft 366 kts 29°
2026-05-07 18:55 48.70986 -64.34194 24589 ft 368 kts 31°
2026-05-07 18:55 48.88921 -64.18780 24650 ft 368 kts 30°
2026-05-07 18:55 49.06566 -64.03622 24604 ft 367 kts 31°
2026-05-07 18:55 49.24412 -63.88094 24616 ft 369 kts 32°
2026-05-07 18:56 49.42416 -63.72274 24614 ft 372 kts 32°
2026-05-07 18:56 49.60227 -63.56522 24603 ft 376 kts 32°
2026-05-07 18:56 49.78531 -63.40199 24595 ft 379 kts 32°
2026-05-07 18:56 49.93317 -63.26895 24560 ft 379 kts 32°
2026-05-07 18:57 49.95567 -63.24865 24566 ft 379 kts 32°
2026-05-07 18:57 49.97842 -63.22805 24566 ft 379 kts 32°
2026-05-07 18:57 50.00122 -63.20741 24549 ft 379 kts 32°
2026-05-07 18:57 50.02390 -63.18687 24547 ft 379 kts 32°
2026-05-07 18:58 50.04673 -63.16617 24547 ft 379 kts 32°
2026-05-07 18:58 50.06960 -63.14540 24548 ft 379 kts 32°
2026-05-07 18:58 50.09207 -63.12496 24531 ft 378 kts 32°
2026-05-07 18:58 50.11481 -63.10428 24531 ft 378 kts 32°
2026-05-07 18:59 50.13765 -63.08346 24531 ft 378 kts 32°
2026-05-07 18:59 50.16033 -63.06278 24514 ft 378 kts 32°
2026-05-07 18:59 50.18280 -63.04225 24514 ft 378 kts 32°
2026-05-07 18:59 50.20557 -63.02144 24514 ft 377 kts 32°
2026-05-07 19:00 50.22830 -63.00062 24514 ft 378 kts 32°
2026-05-07 19:00 50.25073 -62.98000 24511 ft 378 kts 32°
2026-05-07 19:00 50.27357 -62.95914 24510 ft 378 kts 32°
2026-05-07 19:00 50.29612 -62.93847 24511 ft 378 kts 32°
2026-05-07 19:01 50.31886 -62.91753 24515 ft 378 kts 32°
2026-05-07 19:01 50.34158 -62.89661 24515 ft 378 kts 32°
2026-05-07 19:01 50.36402 -62.87595 24515 ft 378 kts 32°
2026-05-07 19:01 50.38680 -62.85494 24516 ft 378 kts 32°
2026-05-07 19:02 50.40954 -62.83394 24515 ft 378 kts 32°
2026-05-07 19:02 50.43212 -62.81307 24515 ft 378 kts 32°
2026-05-07 19:02 50.45492 -62.79197 24513 ft 378 kts 32°
2026-05-07 19:02 50.47743 -62.77109 24519 ft 378 kts 32°
2026-05-07 19:03 50.50006 -62.75010 24513 ft 376 kts 32°
2026-05-07 19:03 50.52240 -62.72938 24512 ft 374 kts 32°
2026-05-07 19:03 50.54473 -62.70864 24512 ft 373 kts 32°
2026-05-07 19:03 50.56728 -62.68762 24510 ft 373 kts 32°
2026-05-07 19:04 50.58937 -62.66705 24512 ft 373 kts 32°
2026-05-07 19:04 50.61183 -62.64611 24515 ft 372 kts 32°
2026-05-07 19:04 50.63395 -62.62544 24512 ft 372 kts 32°
2026-05-07 19:04 50.65629 -62.60455 24515 ft 372 kts 32°
2026-05-07 19:05 50.67840 -62.58388 24508 ft 373 kts 32°
2026-05-07 19:05 50.70082 -62.56284 24515 ft 372 kts 32°
2026-05-07 19:05 50.72315 -62.54191 24517 ft 371 kts 32°
2026-05-07 19:05 50.74513 -62.52129 24517 ft 370 kts 32°
2026-05-07 19:06 50.76737 -62.50039 24517 ft 369 kts 32°
2026-05-07 19:06 50.81140 -62.45891 24515 ft 369 kts 32°
2026-05-07 19:06 50.83325 -62.43831 24518 ft 369 kts 32°
2026-05-07 19:07 50.85533 -62.41747 24518 ft 369 kts 32°
2026-05-07 19:07 50.87736 -62.39664 24520 ft 369 kts 32°
2026-05-07 19:07 50.89941 -62.37577 24519 ft 369 kts 32°
2026-05-07 19:07 50.92143 -62.35490 24514 ft 368 kts 32°
2026-05-07 19:08 50.94340 -62.33408 24513 ft 368 kts 32°
2026-05-07 19:08 50.96534 -62.31325 24515 ft 367 kts 32°
2026-05-07 19:08 50.98723 -62.29244 24514 ft 366 kts 32°
2026-05-07 19:08 51.00910 -62.27162 24512 ft 366 kts 32°
2026-05-07 19:09 51.03092 -62.25084 24513 ft 366 kts 32°
2026-05-07 19:09 51.05275 -62.23003 24513 ft 365 kts 32°
2026-05-07 19:09 51.07429 -62.20946 24515 ft 365 kts 32°
2026-05-07 19:09 51.09608 -62.18864 24515 ft 365 kts 32°
2026-05-07 19:10 51.11789 -62.16774 24520 ft 365 kts 32°
2026-05-07 19:10 51.13970 -62.14683 24520 ft 365 kts 32°
2026-05-07 19:10 51.16145 -62.12599 24523 ft 365 kts 32°
2026-05-07 19:10 51.18322 -62.10512 24521 ft 365 kts 32°
2026-05-07 19:11 51.20498 -62.08419 24516 ft 365 kts 32°
2026-05-07 19:11 51.22668 -62.06330 24521 ft 364 kts 32°
2026-05-07 19:11 51.24841 -62.04238 24525 ft 364 kts 32°
2026-05-07 19:11 51.27010 -62.02146 24527 ft 364 kts 32°
2026-05-07 19:12 51.29184 -62.00048 24523 ft 364 kts 32°
2026-05-07 19:12 51.31325 -61.97978 24523 ft 364 kts 32°
2026-05-07 19:12 51.33488 -61.95877 24536 ft 363 kts 32°
2026-05-07 19:12 51.35650 -61.93789 24531 ft 363 kts 30°
2026-05-07 19:13 51.37942 -61.92095 24524 ft 362 kts 17°
2026-05-07 19:13 51.40346 -61.90899 24514 ft 361 kts 12°
2026-05-07 19:13 51.42755 -61.89775 24515 ft 361 kts 14°
2026-05-07 19:13 51.45144 -61.88427 24490 ft 364 kts 19°
2026-05-07 19:14 51.47516 -61.86940 24311 ft 369 kts 19°
2026-05-07 19:14 51.49875 -61.85547 24022 ft 356 kts 16°
2026-05-07 19:14 51.52156 -61.84279 23728 ft 342 kts 15°
2026-05-07 19:14 51.54409 -61.83006 23468 ft 345 kts 16°
2026-05-07 19:15 51.56671 -61.81676 23214 ft 346 kts 17°
2026-05-07 19:15 51.58926 -61.80356 22938 ft 343 kts 16°
2026-05-07 19:15 51.61144 -61.79077 22621 ft 334 kts 16°
2026-05-07 19:15 51.63318 -61.77821 22322 ft 329 kts 16°
2026-05-07 19:16 51.65465 -61.76574 22022 ft 327 kts 16°
2026-05-07 19:16 51.67599 -61.75333 21722 ft 326 kts 17°
2026-05-07 19:16 51.69726 -61.74094 21430 ft 324 kts 17°
2026-05-07 19:16 51.71848 -61.72858 21142 ft 323 kts 17°
2026-05-07 19:17 51.73957 -61.71628 20858 ft 322 kts 17°
2026-05-07 19:17 51.76061 -61.70400 20576 ft 321 kts 17°
2026-05-07 19:17 51.78158 -61.69174 20287 ft 321 kts 17°
2026-05-07 19:17 51.80263 -61.67942 20054 ft 321 kts 18°
2026-05-07 19:18 51.82331 -61.66726 19785 ft 320 kts 18°
2026-05-07 19:18 51.84426 -61.65501 19516 ft 319 kts 18°
2026-05-07 19:18 51.85808 -61.64692 19334 ft 318 kts 18°
2026-05-07 19:18 51.87890 -61.63470 19069 ft 317 kts 18°
2026-05-07 19:19 51.89965 -61.62249 18808 ft 317 kts 18°
2026-05-07 19:19 51.92032 -61.61033 18549 ft 316 kts 18°
2026-05-07 19:19 51.94069 -61.59833 18514 ft 306 kts 18°
2026-05-07 19:19 51.96697 -61.58286 18500 ft 302 kts 18°
2026-05-07 19:20 51.98035 -61.57498 18499 ft 303 kts 18°
2026-05-07 19:20 52.00021 -61.56324 18500 ft 304 kts 18°
2026-05-07 19:20 52.02015 -61.55147 18500 ft 305 kts 19°
2026-05-07 19:20 52.04015 -61.53962 18501 ft 306 kts 19°
2026-05-07 19:21 52.05995 -61.52789 18506 ft 306 kts 19°
2026-05-07 19:21 52.07996 -61.51603 18507 ft 306 kts 19°
2026-05-07 19:21 52.10000 -61.50414 18507 ft 306 kts 19°
2026-05-07 19:21 52.12005 -61.49223 18483 ft 308 kts 19°
2026-05-07 19:22 52.14049 -61.48008 18202 ft 316 kts 19°
2026-05-07 19:22 52.16093 -61.46789 17927 ft 305 kts 19°
2026-05-07 19:22 52.18070 -61.45612 17590 ft 301 kts 19°
2026-05-07 19:22 52.20029 -61.44446 17233 ft 299 kts 19°
2026-05-07 19:23 52.21981 -61.43282 16873 ft 298 kts 19°
2026-05-07 19:23 52.23929 -61.42118 16529 ft 298 kts 19°
2026-05-07 19:23 52.25882 -61.40951 16186 ft 301 kts 20°
2026-05-07 19:23 52.27847 -61.39774 15861 ft 306 kts 20°
2026-05-07 19:24 52.29859 -61.38567 15522 ft 306 kts 20°
2026-05-07 19:24 52.31851 -61.37372 15173 ft 304 kts 20°
2026-05-07 19:24 52.33833 -61.36182 14822 ft 303 kts 20°
2026-05-07 19:24 52.35811 -61.34995 14509 ft 302 kts 20°
2026-05-07 19:25 52.37780 -61.33811 14216 ft 301 kts 20°
2026-05-07 19:25 52.39745 -61.32628 13927 ft 300 kts 20°
2026-05-07 19:25 52.41705 -61.31447 13636 ft 299 kts 20°
2026-05-07 19:25 52.43658 -61.30269 13353 ft 299 kts 20°
2026-05-07 19:26 52.45608 -61.29092 13040 ft 298 kts 20°
2026-05-07 19:26 52.47555 -61.27915 12720 ft 298 kts 20°
2026-05-07 19:26 52.49499 -61.26739 12408 ft 297 kts 20°
2026-05-07 19:26 52.51420 -61.25576 12093 ft 291 kts 20°
2026-05-07 19:27 52.53310 -61.24433 11775 ft 287 kts 20°
2026-05-07 19:27 52.55158 -61.23314 11480 ft 285 kts 20°
2026-05-07 19:27 52.57022 -61.22182 11200 ft 286 kts 20°
2026-05-07 19:27 52.58891 -61.21045 10926 ft 287 kts 20°
2026-05-07 19:28 52.60761 -61.19909 10651 ft 286 kts 20°
2026-05-07 19:28 52.62629 -61.18769 10379 ft 286 kts 20°
2026-05-07 19:28 52.64494 -61.17634 10111 ft 286 kts 20°
2026-05-07 19:28 52.66359 -61.16497 9837 ft 285 kts 20°
2026-05-07 19:29 52.68213 -61.15365 9583 ft 284 kts 20°
2026-05-07 19:29 52.70062 -61.14234 9309 ft 283 kts 20°
2026-05-07 19:29 52.71906 -61.13110 9007 ft 281 kts 20°
2026-05-07 19:29 52.73738 -61.11988 8717 ft 278 kts 20°
2026-05-07 19:30 52.75513 -61.10898 8417 ft 267 kts 19°
2026-05-07 19:30 52.77237 -61.09846 8117 ft 264 kts 19°
2026-05-07 19:30 52.78988 -61.08772 7851 ft 270 kts 20°
2026-05-07 19:30 52.80749 -61.07688 7600 ft 270 kts 19°
2026-05-07 19:31 52.82485 -61.06617 7352 ft 268 kts 19°
2026-05-07 19:31 52.84221 -61.05548 7089 ft 264 kts 20°
2026-05-07 19:31 52.85936 -61.04463 6848 ft 263 kts 18°
2026-05-07 19:31 52.87641 -61.03433 6638 ft 258 kts 20°
2026-05-07 19:32 52.89313 -61.02411 6397 ft 254 kts 19°
2026-05-07 19:32 52.90964 -61.01411 6146 ft 251 kts 19°
2026-05-07 19:32 52.92596 -61.00397 5899 ft 249 kts 20°
2026-05-07 19:32 52.94213 -60.99372 5635 ft 248 kts 19°
2026-05-07 19:33 52.95825 -60.98407 5376 ft 243 kts 20°
2026-05-07 19:33 52.97405 -60.97411 5110 ft 242 kts 21°
2026-05-07 19:33 52.98960 -60.96468 4854 ft 240 kts 20°
2026-05-07 19:33 53.00527 -60.95538 4600 ft 237 kts 20°
2026-05-07 19:34 53.02063 -60.94557 4346 ft 236 kts 23°
2026-05-07 19:34 53.03576 -60.93525 4084 ft 235 kts 22°
2026-05-07 19:34 53.05100 -60.92639 4026 ft 229 kts 19°
2026-05-07 19:34 53.06592 -60.91758 4017 ft 226 kts 21°
2026-05-07 19:35 53.08080 -60.90782 3992 ft 234 kts 22°
2026-05-07 19:35 53.09603 -60.89837 4013 ft 236 kts 31°
2026-05-07 19:35 53.10867 -60.88103 4018 ft 239 kts 44°
2026-05-07 19:35 53.12173 -60.86431 4020 ft 238 kts 48°
2026-05-07 19:36 53.13443 -60.84660 4025 ft 239 kts 40°
2026-05-07 19:36 53.14601 -60.82743 4029 ft 219 kts 60°
2026-05-07 19:36 53.15377 -60.80868 4000 ft 181 kts 63°
2026-05-07 19:36 53.16059 -60.79198 3936 ft 172 kts 64°
2026-05-07 19:37 53.16757 -60.77552 3716 ft 174 kts 63°
2026-05-07 19:37 53.17472 -60.75779 3562 ft 201 kts 63°
2026-05-07 19:37 53.18312 -60.73725 3423 ft 223 kts 60°
2026-05-07 19:37 53.19226 -60.71576 3276 ft 228 kts 60°
2026-05-07 19:38 53.20152 -60.69399 3129 ft 231 kts 61°
2026-05-07 19:38 53.21049 -60.67225 3120 ft 226 kts 61°
2026-05-07 19:38 53.21950 -60.65077 3105 ft 225 kts 60°
2026-05-07 19:38 53.22821 -60.62990 2854 ft 209 kts 61°
2026-05-07 19:39 53.23659 -60.60952 2568 ft 217 kts 61°
2026-05-07 19:39 53.24523 -60.58896 2252 ft 217 kts 63°
2026-05-07 19:39 53.25370 -60.56863 1964 ft 205 kts 64°
2026-05-07 19:39 53.26143 -60.55003 1702 ft 187 kts 65°
2026-05-07 19:40 53.26861 -60.53257 1427 ft 180 kts 62°
2026-05-07 19:40 53.27554 -60.51617 1160 ft 165 kts 63°
2026-05-07 19:40 53.28152 -60.50174 928 ft 136 kts 59°
2026-05-07 19:40 53.28652 -60.48968 767 ft 121 kts 58°
2026-05-07 19:41 53.29133 -60.47840 632 ft 118 kts 57°
2026-05-07 19:41 53.29601 -60.46747 496 ft 115 kts 63°
2026-05-07 19:41 53.30036 -60.45717 370 ft 107 kts 60°
2026-05-07 19:41 53.30438 -60.44716 214 ft 99 kts 63°
2026-05-07 19:42 53.30789 -60.43855 155 ft 74 kts 65°
2026-05-07 19:42 53.30961 -60.43402 152 ft 34 kts 57°
2026-05-07 19:42 53.31115 -60.43045 153 ft 40 kts 54°
2026-05-07 19:42 53.31155 -60.42808 154 ft 11 kts 128°
2026-05-07 19:43 53.31076 -60.42710 154 ft 16 kts 132°
2026-05-07 19:43 53.31138 -60.42513 154 ft 20 kts 55°
2026-05-07 19:43 53.31205 -60.42358 153 ft 16 kts 56°
2026-05-07 19:43 53.31273 -60.42183 153 ft 21 kts 53°
2026-05-07 19:44 53.31369 -60.41949 153 ft 28 kts 67°
2026-05-07 19:44 53.31453 -60.41754 153 ft 8 kts 50°
2026-05-07 19:44 53.31488 -60.41675 153 ft 16 kts 57°
2026-05-07 19:44 53.31514 -60.41533 153 ft 5 kts 123°
2026-05-07 19:45 53.31508 -60.41520 153 ft 6 kts 125°
2026-05-07 19:45 53.31492 -60.41484 153 ft 0 kts 138°